Change the Weather History Date:

Friday, August 23, 2013

  Actual Average Record
Temperature  
Mean Temperature 62 °F 66 °F  
Max Temperature 74 °F 76 °F 89 °F (1935)
Min Temperature 50 °F 55 °F 43 °F (1925)
Degree Days  
Heating Degree Days 3 2  
Month to date heating degree days 39 25  
Since 1 June heating degree days 155 157  
Since 1 July heating degree days 47 56  
Cooling Degree Days 0 2  
Month to date cooling degree days 28 80  
Year to date cooling degree days 364 257  
Since 1 June cooling degree days 339 244  
Growing Degree Days 13 (Base 50)    
Moisture  
Dew Point 56 °F    
Average Humidity 70    
Maximum Humidity 93    
Minimum Humidity 46    
Precipitation  
Precipitation 0.00 in 0.13 in 1.33 in (1933)
Month to date precipitation 3.43 3.11  
Year to date precipitation 26.70 28.80  
Sea Level Pressure  
Sea Level Pressure 29.96 in    
Wind  
Wind Speed 5 mph (NW)    
Max Wind Speed 14 mph    
Max Gust Speed 20 mph    
Visibility 9 miles    
Events      
T = Trace of Precipitation, MM = Missing Value Source: NWS Daily Summary

Daily Weather History Graph

Daily Weather History Graph

Search for Another Location

Airport or City:

Trip Planner

Search our weather history database for the weather conditions in past years. The results will help you decide how hot, cold, wet, or windy it might be!

Date:

Astronomy

Aug. 23, 2013 Rise Set
Actual Time 6:08 AM EDT 7:41 PM EDT
Civil Twilight 5:39 AM EDT 8:11 PM EDT
Nautical Twilight 5:03 AM EDT 8:46 PM EDT
Astronomical Twilight 4:25 AM EDT 9:24 PM EDT
Moon 8:53 PM EDT (8/23) 9:06 AM EDT (8/23)
Length of Visible Light 14h 31m
Length of Day
13h 32m
Waning Gibbous, 91% of the Moon is Illuminated
Aug 23
Waning Gibbous
Aug 28
Last Quarter
Sep 5
New
Sep 12
First Quarter
Sep 19
Full

Hourly Weather History & Observations

Time (EDT) Temp. Dew Point Humidity Pressure Visibility Wind Dir Wind Speed Gust Speed Precip Events Conditions
12:54 AM 66.9 °F 64.9 °F 93% 29.84 in 6.0 mi West 5.8 mph - N/A   Overcast
1:36 AM 66.2 °F 64.4 °F 94% 29.92 in 6.0 mi WNW 5.8 mph - N/A   Overcast
1:54 AM 66.9 °F 64.0 °F 90% 29.84 in 7.0 mi WNW 3.5 mph - N/A   Overcast
2:44 AM 66.2 °F 62.6 °F 88% 29.93 in 7.0 mi NW 8.1 mph - N/A   Overcast
2:54 AM 66.0 °F 63.0 °F 90% 29.85 in 8.0 mi NW 4.6 mph - N/A   Overcast
3:45 AM 64.4 °F 60.8 °F 88% 29.92 in 8.0 mi NW 5.8 mph - N/A   Partly Cloudy
3:54 AM 64.0 °F 61.0 °F 90% 29.84 in 8.0 mi NW 4.6 mph - N/A   Partly Cloudy
4:54 AM 62.1 °F 59.0 °F 90% 29.86 in 9.0 mi West 5.8 mph - N/A   Partly Cloudy
5:54 AM 61.0 °F 57.9 °F 90% 29.88 in 10.0 mi WNW 3.5 mph - N/A   Clear
7:54 AM 63.0 °F 59.0 °F 87% 29.92 in 10.0 mi WNW 4.6 mph - N/A   Clear
8:54 AM 66.0 °F 57.9 °F 75% 29.94 in 10.0 mi Variable 3.5 mph - N/A   Clear
9:54 AM 70.0 °F 57.0 °F 63% 29.95 in 10.0 mi North 8.1 mph - N/A   Partly Cloudy
10:54 AM 70.0 °F 54.0 °F 57% 29.96 in 10.0 mi NNW 9.2 mph - N/A   Scattered Clouds
11:54 AM 70.0 °F 55.0 °F 59% 29.96 in 10.0 mi NW 10.4 mph - N/A   Mostly Cloudy
12:54 PM 72.0 °F 55.0 °F 55% 29.95 in 10.0 mi NNW 9.2 mph - N/A   Scattered Clouds
1:54 PM 72.0 °F 53.1 °F 51% 29.97 in 10.0 mi NW 8.1 mph 17.3 mph N/A   Partly Cloudy
2:54 PM 73.0 °F 52.0 °F 48% 29.97 in 10.0 mi NW 10.4 mph - N/A   Clear
3:54 PM 73.0 °F 52.0 °F 48% 29.97 in 10.0 mi NW 10.4 mph 17.3 mph N/A   Clear
4:54 PM 72.0 °F 52.0 °F 49% 29.99 in 10.0 mi NNW 9.2 mph - N/A   Clear
5:54 PM 71.1 °F 51.1 °F 49% 30.01 in 10.0 mi North 5.8 mph - N/A   Clear
6:54 PM 68.0 °F 50.0 °F 52% 30.01 in 10.0 mi North 5.8 mph - N/A   Clear
7:54 PM 63.0 °F 51.1 °F 65% 30.03 in 10.0 mi NNE 5.8 mph - N/A   Clear
8:54 PM 62.1 °F 48.9 °F 62% 30.06 in 10.0 mi Calm Calm - N/A   Clear
9:54 PM 57.0 °F 51.1 °F 81% 30.08 in 10.0 mi Calm Calm - N/A   Clear
10:54 PM 53.1 °F 50.0 °F 89% 30.10 in 10.0 mi Calm Calm - N/A   Clear
11:54 PM 52.0 °F 48.0 °F 86% 30.12 in 10.0 mi SSE 3.5 mph - N/A   Clear